www.pogodaiklimat.ru

Погода и климат >> Архив погоды >> Киргизия >> Бишкек


АРХИВ ПОГОДЫ в Бишкеке

Время (UTC), дата Ветер
(напр.,м/с)
 
Видим.   Явления Облачность Т
(С)
Тd
(С)
f
(%)
Тe
(С)
Тes
(С)
Комфортность P
(гПа)
Po
(гПа)
Тmin
(С)
Tmax
(С)
R
(мм)
R24
(мм)
S
(см)
12 15.02 штиль 0 4000 м слабый снег 10/10 600 м
[Sc]
-2.2 -3.7 89 -3 -3 по сезону 1035.1 942.1
15 15.02 З 1 н/о {снег} 10/10 600 м
[Sc]
-4.1 -5.3 91 -7 -7 прохладно 1038.0 944.0 -1.4
18 15.02 штиль 0 н/о {снег} 10/0
[Ac lent]
-4.5 -5.8 91 -6 -6 по сезону 1038.5 944.4 -1.4 6
21 15.02 штиль 0 н/о 10/0
[Ac lent]
-5.2 -6.6 90 -6 -6 по сезону 1038.8 944.4
00 16.02 Ю 1 н/о 8/0
[Ac lent]
-7.1 -8.4 90 -10 -10 прохладно 1039.2 944.1
03 16.02 ЮЗ 1 500 м туман ?/? -7.8 -8.4 95 -10 -10 холодно 1040.8 945.3 15
06 16.02 З 1 500 м туман ?/? -5.2 -6.2 93 -8 -8 холодно 1040.5 945.9
09 16.02 СЗ 1 4000 м дымка {туман} 10/0
[As trans]
-4.0 -4.9 93 -6 -4 холодно 1039.4 945.3
12 16.02 С 1 4000 м дымка {туман} 10/0
[Ac trans]
-4.2 -5.8 89 -7 -7 холодно 1039.4 945.3
15 16.02 СВ 2 н/о 10/0
[Ac trans]
-5.0 -6.3 91 -9 -9 холодно 1039.7 945.3 -2.5
18 16.02 С 1 н/о 10/0
[Ac trans]
-5.4 -6.4 93 -8 -8 по сезону 1039.1 944.5 -2.5
21 16.02 штиль 0 н/о 10/0
[Ac trans]
-5.9 -7.0 92 -7 -7 по сезону 1038.6 943.9
00 17.02 штиль 0 н/о 10/0
[Ac trans]
-6.0 -7.5 89 -7 -7 по сезону 1037.9 943.3
03 17.02 штиль 0 н/о переохл. туман ?/? -7.9 -8.9 93 -9 -9 холодно 1039.4 944.0 15
06 17.02 штиль 0 1000 м дымка {туман} 10/0
[Ac trans Ci fib]
-2.4 -4.6 85 -4 +3 прохладно 1036.3 943.0
09 17.02 З 1 4000 м дымка 10/0
[Ac trans]
-4.5 -6.5 86 -7 -4 холодно 1037.6 943.5
12 17.02 С 1 4000 м слабый снег 10/0
[As op]
-3.7 -5.2 89 -6 -6 холодно 1036.8 943.1
15 17.02 С 1 н/о {снег} 10/0
[Ac trans]
-4.7 -6.4 88 -7 -7 прохладно 1036.7 942.6 -2.2
18 17.02 штиль 0 н/о {снег} 10/0
[Ac trans]
-5.1 -6.5 90 -6 -6 по сезону 1035.5 941.4 -2.2 0.2
21 17.02 штиль 0 н/о 10/4 600 м
[Sc Ac trans]
-5.7 -6.8 92 -7 -7 по сезону 1034.9 940.6
00 18.02 ЮЗ 1 н/о 10/6 600 м
[Sc Ac trans]
-7.0 -7.9 93 -9 -9 прохладно 1034.4 939.7
03 18.02 З 1 500 м туман ?/? -6.8 -7.3 96 -9 -9 холодно 1034.5 939.9 13
06 18.02 З 1 4000 м слабый снег {туман} 10/10 600 м
[Sc]
-7.1 -8.4 90 -10 -10 очень
холодно
1034.4 939.7
09 18.02 СЗ 1 10 км в посл. час снег 10/10 600 м
[Sc]
-6.7 -8.3 88 -9 -9 очень
холодно
1034.7 940.1
12 18.02 С 1 4000 м слабый снег 10/10 600 м
[Sc]
-6.7 -8.3 88 -9 -9 очень
холодно
1036.4 941.6
15 18.02 штиль 0 н/о слабый снег 10/10 600 м
[Sc]
-7.2 -8.5 90 -8 -8 холодно 1037.8 942.7 -5.0
18 18.02 штиль 0 н/о слабый снег 10/10 600 м
[Sc]
-7.6 -8.9 90 -8 -8 прохладно 1037.9 942.6 -5.0 0.3
21 18.02 штиль 0 н/о {снег} ясно -9.4 -10.6 91 -10 -10 прохладно 1038.2 942.4
00 19.02 В 3 н/о {снег} ясно -7.9 -10.6 81 -14 -14 очень
холодно
1036.9 941.7
03 19.02 В 1 20 км ясно -8.9 -12.8 73 -11 -10 очень
холодно
1036.3 940.7 13
06 19.02 В 3 20 км ясно +1.1 -9.7 44 -3 +4 прохладно 1030.0 938.4
09 19.02 З 1 20 км ясно +0.6 -8.1 52 -1 +6 по сезону 1027.9 936.4
12 19.02 З 2 20 км 4/0
[Ci fib]
-1.3 -8.0 60 -5 -5 холодно 1027.7 935.5
15 19.02 штиль 0 н/о 3/0
[Ci fib]
-5.6 -9.0 77 -6 -6 прохладно 1028.2 934.5 +1.7
18 19.02 штиль 0 н/о 4/0
[Ci fib]
-7.7 -9.5 87 -8 -8 прохладно 1027.0 932.8 +1.7
21 19.02 штиль 0 н/о 4/0
[Ci fib]
-9.1 -11.1 85 -10 -10 прохладно 1025.9 931.3
00 20.02 ЮВ 1 н/о 8/0
[Ci fib]
-8.5 -10.8 83 -11 -11 прохладно 1024.5 930.3
03 20.02 штиль 0 20 км 10/0
[Ci fib]
-7.8 -10.0 84 -8 -7 прохладно 1023.5 929.5 10
06 20.02 С 1 20 км 10/0
[Ci fib]
+3.7 -4.8 54 +3 +10 тепло 1016.9 927.3
09 20.02 З 1 20 км 8/0
[Ci fib]
+5.5 -2.6 56 +5 +10 тепло 1013.8 925.1
12 20.02 штиль 0 20 км 4/0
[Ci fib]
+5.1 -3.2 55 +5 +5 тепло 1012.3 923.5
15 20.02 штиль 0 н/о 10/0
[Ci fib]
+0.4 -2.9 78 -1 -1 по сезону 1013.5 923.2 +6.9
18 20.02 З 2 н/о 10/0
[Ci fib]
-0.1 -3.7 77 -4 -4 по сезону 1015.7 925.1 +6.9
21 20.02 СВ 1 н/о 10/0
[Ci fib]
-1.4 -4.4 80 -3 -3 по сезону 1019.9 928.4
00 21.02 Ю 1 н/о 10/0
[Ac trans]
+1.4 -3.1 72 -0 -0 тепло 1021.4 930.7
03 21.02 ЮЗ 1 20 км 10/0
[Ac trans Ci fib]
+0.9 -3.3 73 -1 0 по сезону 1024.0 933.0 7
06 21.02 З 1 20 км 10/6 600 м
[Sc Ac trans]
+3.7 -1.9 67 +3 +4 по сезону 1025.1 934.8
09 21.02 В 1 20 км 10/3 600 м
[Sc Ac trans]
+4.0 -1.9 65 +3 +5 по сезону 1025.0 934.8
12 21.02 С 1 10 км 10/4 600 м
[Sc Ac trans Ci fib]
+3.0 -0.2 79 +2 +2 по сезону 1026.2 935.6
15 21.02 СЗ 1 н/о 10/3 600 м
[Sc Ac trans Ci fib]
+1.8 -0.7 83 0 0 по сезону 1028.3 937.2 +4.6
18 21.02 В 1 н/о 10/3 600 м
[Sc Ac trans Ci fib]
+1.4 -0.2 89 -1 -1 по сезону 1028.1 936.9 +4.6
21 21.02 В 1 н/о 10/6 600 м
[Sc Ac trans]
+1.9 0.0 87 0 0 по сезону 1027.3 936.3
00 22.02 штиль 0 н/о 10/8 600 м
[Sc Ac trans]
+1.2 -0.5 88 0 0 тепло 1027.3 936.1
03 22.02 штиль 0 20 км 10/6 600 м
[Sc Ac trans]
+1.8 +0.2 89 +1 +1 по сезону 1027.1 936.1 5
06 22.02 В 1 20 км 10/0
[Ac trans]
+6.4 +0.5 66 +6 +9 тепло 1024.2 934.8

 

Местоположение метеостанции Бишкек (город Бишкек, Киргизия): широта 42.85 долгота 74.53 высота над уровнем моря 760 м.

В архиве по умолчанию представлена погода в Бишкеке за последнюю неделю. Архивные данные за месяц целиком и за предыдущие месяцы, начиная с января 2011 года, Вы можете получить, выбрав интересующий диапазон дат из раскрывающегося списка и нажав кнопку "Ввод!".

Внимание! Время в таблицах - всемирное. Для получения местного времени необходимо прибавить поправку, которая в Бишкеке равна 6 ч.

Смотрите также архив погоды в соседних городах и на ближайших метеорологических станциях:

Погода в Байтике (Чуйская область, Киргизия) (22 км)
Погода в Иссык-Ате (город Бишкек, Киргизия) (28 км)
Погода в Яны-Жере (Чуйская область, Киргизия) (46 км)
Погода в Бериктасе (Жамбылская область, Казахстан) (49 км)
Погода в Кара-Балте (Чуйская область, Киргизия) (58 км)
Погода в Тео-Ашуу (Чуйская область, Киргизия) (58 км)
Погода в Токмоке (Чуйская область, Киргизия) (61 км)
Погода в Кордае (Жамбылская область, Казахстан) (66 км)
Погода в Сусамыре (Чуйская область, Киргизия) (90 км)
Погода в Отаре (Жамбылская область, Казахстан) (96 км)

Пояснения к столбцам:

Ветер - указаны скорость ветра в м/с - средняя за 10 мин, порывы в срок и между сроками (в фигурных скобках) и направление, откуда дует ветер: С - северный, СВ - северо-восточный, В - восточный, ЮВ - юго-восточный, Ю - южный, ЮЗ - юго-западный, З - западный, СЗ - северо-западный.
Видимость - горизонтальная дальность видимости в метрах или километрах. При видимости от 1 до 10 км при отсутствии осадков обычно наблюдается дымка, при ухудшении видимости до 1 км и менее - туман. В сухую погоду видимость может ухудшаться дымом, пылью или мглою.
Явления - указаны атмосферные явления, наблюдавшиеся в срок или в последний час перед сроком; фигурными скобками обозначены явления, наблюдавшиеся между сроками (за 1-3 часа до срока); квадратными скобками обозначены град или гололедные отложения с указанием их диаметра в мм.
Облачность - указаны через наклонную черту общая и нижняя облачность в баллах и высота нижней границы облаков в метрах; квадратными скобками обозначены формы облаков: Ci - перистые, Cs - перисто-слоистые, Cc - перисто-кучевые, Ac - высококучевые, As - высокослоистые, Sc - слоисто-кучевые, Ns - слоисто-дождевые, Cu - кучевые, Cb - кучево-дождевые. Подробнее классификацию облаков см. в Атласе облаков (PDF).
T - Температура воздуха - температура, измеренная на высоте 2 м над землей.
Td - Температура точки росы - температура, при понижении до которой содержащийся в воздухе водяной пар достигнет насыщения.
f - Относительная влажность воздуха - влажноcть воздуха, измеренная на высоте 2 м над землей.
Te - Эффективная температура - температура, которую ощущает одетый по сезону человек в тени. Характеристика душности погоды. При расчете учитывается влияние влажности воздуха и скорости ветра на теплоощущения человека.
Tes - Эффективная температура на солнце - температура, которую ощущает человек, с поправкой на солнечный нагрев. Характеристика знойности погоды. Зависит от высоты солнца над горизонтом, облачности и скорости ветра. Ночью, в пасмурную погоду, а также при ветре 12 м/с и более поправка равна нулю.
P - Атмосферное давление - приведенное к уровню моря атмосферное давление.
Po - Атмосферное давление - измеренное на уровне метеостанции атмосферное давление.
Tmin - Минимальная температура - минимум температуры воздуха на высоте 2 м над землей.
Tmax - Максимальная температура - максимум температуры воздуха на высоте 2 м над землей.
R - Количество осадков - Количество выпавших осадков за период времени, мм. При наведении курсора мыши на число - период времени, за который выпало указанное количество осадков.
R24 - Количество осадков - Количество выпавших осадков за 24 часа, мм.
S - Снежный покров - Высота снежного покрова, см. При наведении курсора мыши на число - состояние снежного покрова и степень покрытия местности в баллах.